GW7188 Weather Reports


time (UTC)temp
F
wind
direction
speed
knots
gust
knots
rain 1hr
in
rain 24hr
in
rain mn
in
humidity
%
barometer
mb
20260505101830 50 31 4.3 7.8 0.00 0.00 0.66 75 1008.9
20260505101330 50 27 5.2 9.6 0.00 0.00 0.66 76 1008.8
20260505100830 50 35 5.2 7.8 0.00 0.00 0.66 75 1008.9
20260505100329 50 27 5.2 8.7 0.00 0.00 0.66 75 1008.8
20260505095829 50 30 4.3 9.6 0.00 0.00 0.65 76 1008.9
20260505095330 50 27 7.0 11.3 0.00 0.00 0.65 76 1008.8
20260505094830 50 31 4.3 7.8 0.00 0.00 0.65 77 1008.9
20260505094329 50 28 3.5 6.1 0.00 0.00 0.65 77 1008.9
20260505093830 50 30 3.5 6.1 0.00 0.00 0.65 78 1008.8
20260505093330 50 31 4.3 7.8 0.00 0.00 0.65 78 1008.7
20260505092829 50 27 5.2 9.6 0.00 0.00 0.65 78 1008.5
20260505092329 50 25 3.5 6.1 0.00 0.00 0.65 79 1008.4
20260505091829 49 26 4.3 7.0 0.00 0.00 0.66 80 1008.3
20260505091329 49 23 4.3 7.0 0.00 0.00 0.66 80 1008.1
20260505090830 49 36 3.5 6.1 0.01 0.00 0.66 80 1008.0
20260505090329 49 29 3.5 7.0 0.01 0.00 0.66 80 1007.7
20260505085829 49 25 4.3 7.0 0.07 0.00 0.66 81 1007.7
20260505085330 49 26 4.3 7.8 0.12 0.00 0.66 82 1007.8
20260505084829 49 33 4.3 7.0 0.12 0.00 0.66 82 1007.7
20260505084330 49 15 3.5 6.1 0.15 0.00 0.66 82 1007.9
20260505083835 49 29 3.5 5.2 0.19 0.00 0.66 82 1007.5
20260505083329 49 18 3.5 7.0 0.21 0.00 0.66 82 1007.2
20260505082829 49 12 4.3 7.0 0.21 0.00 0.66 82 1006.9
20260505082329 49 32 5.2 8.7 0.21 0.00 0.66 82 1006.0
20260505081829 49 38 5.2 8.7 0.21 0.00 0.66 84 1005.1
20260505081330 49 39 5.2 8.7 0.23 0.00 0.66 85 1004.5
20260505080829 50 37 7.0 11.3 0.25 0.00 0.66 85 1003.8
20260505080330 50 32 9.6 12.2 0.20 0.00 0.67 86 1003.8
20260505075830 50 33 7.0 11.3 0.20 0.00 0.71 85 1004.6
20260505075332 51 30 5.2 7.8 0.30 0.00 0.68 88 1007.3
20260505074833 51 25 4.3 7.8 0.30 0.00 0.63 87 1007.8
20260505074329 52 33 5.2 7.8 0.30 0.00 0.58 86 1008.5
20260505073830 53 31 5.2 7.8 0.30 0.00 0.56 86 1009.0
20260505073329 53 1 3.5 6.1 0.33 0.00 0.53 86 1009.4
20260505072830 53 11 1.7 5.2 0.39 0.00 0.52 89 1009.7
20260505072330 54 36 0.9 2.6 0.51 0.00 0.52 89 1009.8
20260505071830 54 254 0.0 1.7 0.61 0.00 0.62 87 1009.7
20260505071329 54 23 1.7 3.5 0.60 0.00 0.61 89 1008.9
20260505070830 54 0 2.6 5.2 0.59 0.00 0.59 90 1008.0
20260505070329 54 357 0.9 3.5 0.54 0.00 0.54 90 1007.8
20260505065829 54 13 1.7 5.2 0.53 0.00 0.54 88 1007.7
20260505065330 54 19 4.3 7.0 0.50 0.00 0.51 87 1007.4
20260505064830 54 26 3.5 7.8 0.42 0.00 0.44 84 1007.4
20260505064330 54 15 3.5 7.8 0.35 0.00 0.35 86 1006.9
20260505063831 55 16 6.1 9.6 0.32 0.00 0.32 84 1006.6
20260505063330 56 17 6.1 12.2 0.21 0.00 0.23 83 1006.3
20260505062830 57 22 4.3 7.8 0.14 0.00 0.14 80 1006.3
20260505062329 59 35 4.3 9.6 0.09 0.00 0.09 77 1006.1
20260505061830 62 18 5.2 13.9 0.01 0.00 0.02 68 1006.1
20260505061329 64 14 6.1 9.6 0.00 0.00 0.01 64 1006.0
20260505060830 66 26 6.1 9.6 0.00 0.00 0.00 60 1006.0
20260505060329 67 22 3.5 6.1 0.00 0.00 0.00 59 1005.7
20260505055830 69 24 5.2 9.6 0.00 0.00 0.00 56 1005.2
20260505055329 69 339 1.7 5.2 0.00 0.00 0.00 62 1005.0
20260505054829 69 327 1.7 5.2 0.00 0.00 0.00 70 1004.8
20260505054329 68 20 1.7 2.6 0.00 0.00 0.00 73 1004.6
20260505053829 68 35 0.0 0.9 0.00 0.00 0.00 73 1004.5
20260505053330 68 21 2.6 5.2 0.00 0.00 0.00 74 1004.6
20260505052829 67 6 0.9 4.3 0.00 0.00 0.00 74 1004.6
20260505052330 67 10 0.0 1.7 0.00 0.00 0.00 74 1004.3
20260505051829 67 187 0.0 1.7 0.00 0.00 0.00 74 1004.1
20260505051337 67 267 0.9 1.7 0.00 0.00 0.00 74 1004.0
20260505050829 67 218 0.0 2.6 0.00 0.00 0.00 74 1003.7
20260505050329 67 258 0.0 1.7 0.00 0.00 0.00 74 1003.5
20260505041330 69 119 0.9 2.6 0.00 0.00 0.00 73 1004.1
20260505040830 69 143 0.0 1.7 0.00 0.00 0.00 72 1004.2
20260505040330 69 107 0.0 1.7 0.00 0.00 0.00 73 1004.3
20260505035829 69 248 0.9 2.6 0.00 0.00 0.00 73 1004.4
20260505035330 69 118 0.9 2.6 0.00 0.00 0.00 74 1004.4
20260505034830 69 192 0.9 2.6 0.00 0.00 0.00 74 1004.4
20260505034329 69 192 0.0 0.9 0.00 0.00 0.00 74 1004.4
20260505033829 69 0 0.0 0.0 0.00 0.00 0.00 74 1004.3
20260505033329 69 0 0.0 0.0 0.00 0.00 0.00 74 1004.3
20260505032829 69 115 0.9 1.7 0.00 0.00 0.00 74 1004.3
20260505032329 69 321 0.9 2.6 0.00 0.00 0.00 74 1004.3
20260505031831 70 0 0.0 0.0 0.00 0.00 0.00 73 1004.3
20260505031331 70 149 0.0 1.7 0.00 0.00 0.00 74 1004.2
20260505030830 70 127 0.0 0.0 0.00 0.00 0.00 74 1004.1
20260505030331 70 0 0.0 0.0 0.00 0.00 0.00 73 1004.1
20260505025830 70 231 0.9 3.5 0.00 0.00 0.00 72 1004.1
20260505025331 70 101 0.9 2.6 0.00 0.00 0.00 73 1004.0
20260505024831 70 0 0.0 0.0 0.00 0.00 0.00 73 1003.9
20260505024330 70 0 0.0 0.0 0.00 0.00 0.00 72 1003.9
20260505023832 71 39 0.0 0.9 0.00 0.00 0.00 71 1003.8
20260505023330 71 0 0.0 0.0 0.00 0.00 0.00 70 1003.7
20260505022832 71 0 0.0 0.0 0.00 0.00 0.00 69 1003.6
20260505022329 72 0 0.0 0.0 0.00 0.00 0.00 68 1003.6
20260505021831 72 87 0.0 1.7 0.00 0.00 0.00 68 1003.5
20260505021330 72 93 0.0 1.7 0.00 0.00 0.00 67 1003.5
20260505020831 72 39 0.0 0.9 0.00 0.00 0.00 67 1003.4
20260505020330 72 0 0.0 0.0 0.00 0.00 0.00 66 1003.4
20260505015830 72 0 0.0 0.0 0.00 0.00 0.00 66 1003.4
20260505015330 72 0 0.0 0.0 0.00 0.00 0.00 66 1003.3
20260505014830 73 0 0.0 0.0 0.00 0.00 0.00 65 1003.2
20260505014329 73 0 0.0 0.0 0.00 0.00 0.00 64 1003.0
20260505013830 74 0 0.0 0.0 0.00 0.00 0.00 63 1002.9
20260505013329 74 0 0.0 0.0 0.00 0.00 0.00 62 1002.8
20260505012830 75 0 0.0 0.0 0.00 0.00 0.00 61 1002.8
20260505012329 75 0 0.0 0.0 0.00 0.00 0.00 60 1002.7
20260505011829 75 0 0.0 0.0 0.00 0.00 0.00 60 1002.6
20260505011329 75 208 0.0 0.9 0.00 0.00 0.00 60 1002.6
20260505010832 76 189 0.0 0.9 0.00 0.00 0.00 59 1002.5
20260505010329 76 219 0.0 1.7 0.00 0.00 0.00 59 1002.4
20260505005829 76 299 0.0 1.7 0.00 0.00 0.00 58 1002.4
20260505005332 76 217 0.0 2.6 0.00 0.00 0.00 59 1002.3
20260505004830 77 206 0.0 2.6 0.00 0.00 0.00 57 1002.3
20260505004329 77 190 0.0 1.7 0.00 0.00 0.00 57 1002.2
20260505003829 78 177 0.0 0.0 0.00 0.00 0.00 56 1002.2
20260505003330 78 232 0.9 2.6 0.00 0.00 0.00 55 1002.2
20260505002830 78 220 0.9 2.6 0.00 0.00 0.00 55 1002.2
20260505002330 78 185 0.9 2.6 0.00 0.00 0.00 54 1002.1
20260505001834 78 220 1.7 4.3 0.00 0.00 0.00 54 1002.1
20260505001329 78 202 1.7 3.5 0.00 0.00 0.00 54 1002.1
20260505000830 79 187 0.9 3.5 0.00 0.00 0.00 54 1002.1
20260505000331 79 0 0.0 0.0 0.00 0.00 0.00 53 1002.1
20260504235830 79 0 0.0 0.0 0.00 0.00 0.00 53 1002.1
20260504235329 79 214 2.6 3.5 0.00 0.00 0.00 53 1002.1
20260504234830 80 268 0.0 1.7 0.00 0.00 0.00 52 1002.1
20260504234331 80 216 2.6 5.2 0.00 0.00 0.00 52 1002.1
20260504233832 80 160 0.0 1.7 0.00 0.00 0.00 53 1002.1
20260504233329 80 210 1.7 4.3 0.00 0.00 0.00 52 1002.1
20260504232829 81 225 1.7 3.5 0.00 0.00 0.00 51 1002.2
20260504232330 81 197 0.9 3.5 0.00 0.00 0.00 51 1002.2
20260504231830 81 195 1.7 2.6 0.00 0.00 0.00 51 1002.2
20260504231329 81 0 0.0 0.0 0.00 0.00 0.00 51 1002.3
20260504230830 82 182 0.9 1.7 0.00 0.00 0.00 50 1002.3
20260504230329 82 246 0.9 1.7 0.00 0.00 0.00 50 1002.4
20260504225829 82 193 1.7 3.5 0.00 0.00 0.00 49 1002.3
20260504225329 82 0 0.0 0.0 0.00 0.00 0.00 49 1002.3
20260504224829 82 260 0.0 0.9 0.00 0.00 0.00 48 1002.3
20260504224329 82 192 1.7 3.5 0.00 0.00 0.00 49 1002.3
20260504223830 82 130 0.0 1.7 0.00 0.00 0.00 49 1002.2
20260504223330 83 206 2.6 2.6 0.00 0.00 0.00 48 1002.2
20260504222829 83 249 1.7 2.6 0.00 0.00 0.00 47 1002.2
20260504222330 83 313 0.0 0.0 0.00 0.00 0.00 47 1002.2
20260504221829 83 280 1.7 4.3 0.00 0.00 0.00 46 1002.3
20260504221330 82 188 0.9 2.6 0.00 0.00 0.00 47 1002.3
20260504220829 82 198 0.9 2.6 0.00 0.00 0.00 47 1002.3
20260504220330 82 229 1.7 3.5 0.00 0.00 0.00 47 1002.4
20260504215829 83 204 2.6 2.6 0.00 0.00 0.00 48 1002.5
20260504215329 83 192 0.9 2.6 0.00 0.00 0.00 47 1002.5
20260504214830 83 273 0.9 1.7 0.00 0.00 0.00 46 1002.5
20260504214329 83 249 0.0 2.6 0.00 0.00 0.00 46 1002.5
20260504213829 83 238 2.6 5.2 0.00 0.00 0.00 46 1002.6
20260504213330 82 227 0.0 1.7 0.00 0.00 0.00 48 1002.6
20260504212829 82 252 1.7 3.5 0.00 0.00 0.00 48 1002.7
20260504212330 82 279 1.7 3.5 0.00 0.00 0.00 47 1002.7
20260504211829 82 263 1.7 4.3 0.00 0.00 0.00 47 1002.7
20260504211329 83 242 1.7 3.5 0.00 0.00 0.00 46 1002.7
20260504210830 82 283 1.7 3.5 0.00 0.00 0.00 46 1002.7
20260504210331 82 234 1.7 4.3 0.00 0.00 0.00 47 1002.7
20260504205830 82 262 1.7 2.6 0.00 0.00 0.00 46 1002.8
20260504205329 82 228 2.6 5.2 0.00 0.00 0.00 46 1002.9
20260504204830 82 251 2.6 6.1 0.00 0.00 0.00 45 1003.0
20260504204329 81 201 1.7 4.3 0.00 0.00 0.00 47 1003.0
20260504203829 82 254 3.5 5.2 0.00 0.00 0.00 47 1003.1
20260504203330 82 247 2.6 5.2 0.00 0.00 0.00 46 1003.2
20260504202829 81 251 1.7 5.2 0.00 0.00 0.00 46 1003.2
20260504202329 81 284 2.6 5.2 0.00 0.00 0.00 45 1003.2
20260504201829 81 234 4.3 7.0 0.00 0.00 0.00 45 1003.2
20260504201329 81 211 2.6 5.2 0.00 0.00 0.00 46 1003.1
20260504200829 82 226 2.6 5.2 0.00 0.00 0.00 46 1003.2
20260504200331 82 186 3.5 6.1 0.00 0.00 0.00 45 1003.2
20260504195830 81 267 3.5 5.2 0.00 0.00 0.00 44 1003.2
20260504195329 81 205 3.5 5.2 0.00 0.00 0.00 45 1003.2
20260504194829 82 226 3.5 7.0 0.00 0.00 0.00 44 1003.2
20260504194329 82 328 1.7 3.5 0.00 0.00 0.00 45 1003.3
20260504193829 82 271 3.5 8.7 0.00 0.00 0.00 44 1003.3
20260504193330 81 223 4.3 7.8 0.00 0.00 0.00 46 1003.4
20260504192830 81 274 0.9 4.3 0.00 0.00 0.00 47 1003.4
20260504192329 81 203 5.2 7.8 0.00 0.00 0.00 48 1003.4
20260504191830 81 227 2.6 4.3 0.00 0.00 0.00 47 1003.5
20260504191330 80 250 2.6 3.5 0.00 0.00 0.00 48 1003.5
20260504190830 80 230 3.5 7.0 0.00 0.00 0.00 47 1003.5
20260504190330 80 220 3.5 7.0 0.00 0.00 0.00 47 1003.5
20260504185834 80 251 3.5 5.2 0.00 0.00 0.00 47 1003.7
20260504185332 80 190 1.7 3.5 0.00 0.00 0.00 48 1003.7
20260504184832 81 255 3.5 5.2 0.00 0.00 0.00 47 1003.6
20260504184330 80 260 1.7 4.3 0.00 0.00 0.00 47 1003.7
20260504183830 80 222 2.6 5.2 0.00 0.00 0.00 47 1003.7
20260504183330 80 237 2.6 3.5 0.00 0.00 0.00 46 1003.8
20260504182830 80 248 2.6 7.0 0.00 0.00 0.00 48 1003.9
20260504182330 80 218 2.6 3.5 0.00 0.00 0.00 48 1003.8
20260504181829 80 256 3.5 5.2 0.00 0.00 0.00 47 1003.8
20260504181329 79 236 2.6 6.1 0.00 0.00 0.00 47 1003.8
20260504180830 78 254 2.6 3.5 0.00 0.00 0.00 48 1003.8
20260504180329 78 264 4.3 6.1 0.00 0.00 0.00 47 1003.9
20260504175830 79 253 3.5 5.2 0.00 0.00 0.00 48 1003.9
20260504175330 79 229 3.5 7.0 0.00 0.00 0.00 47 1004.0
20260504174830 79 249 3.5 5.2 0.00 0.00 0.00 47 1004.0
20260504174331 78 201 3.5 4.3 0.00 0.00 0.00 47 1004.0
20260504173830 78 268 1.7 5.2 0.00 0.00 0.00 49 1004.0
20260504173331 78 177 3.5 5.2 0.00 0.00 0.00 48 1004.0
20260504172830 77 219 3.5 6.1 0.00 0.00 0.00 48 1004.0
20260504172331 77 258 5.2 7.8 0.00 0.00 0.00 47 1004.1
20260504171830 77 238 1.7 3.5 0.00 0.00 0.00 48 1004.1
20260504171331 77 236 2.6 6.1 0.00 0.00 0.00 48 1004.1
20260504170830 77 267 5.2 7.8 0.00 0.00 0.00 48 1004.2
20260504170329 77 229 5.2 7.0 0.00 0.00 0.00 48 1004.2
20260504160329 74 236 3.5 7.0 0.00 0.00 0.00 52 1004.3
20260504150830 71 270 3.5 6.1 0.00 0.00 0.00 54 1004.4
20260504150330 70 262 4.3 7.8 0.00 0.00 0.00 54 1004.4
20260504141330 67 220 2.6 5.2 0.00 0.00 0.00 58 1004.5
20260504140832 67 206 2.6 7.0 0.00 0.00 0.00 57 1004.6
20260504130330 66 242 2.6 4.3 0.00 0.00 0.00 56 1004.4
20260504110329 64 208 1.7 3.5 0.00 0.00 0.00 55 1004.6